Wetbulb
65.21 67.90 71.35 72.08 72.31 72.61 72.61 72.78 72.63 72.92 72.40 72.43 71.52 71.52 70.73 69.27 68.52 68.62 69.05 68.75 68.25 68.05 67.97 68.22 68.93 69.69 69.42 70.24 71.14 70.54 70.32 70.25 69.85 69.66 69.44 69.28 68.51 68.98 68.87 68.84 69.47 68.72 70.79
67.50 68.86 71.21 72.30 73.01 72.90 72.91 72.87 72.94 72.53 72.62 72.36 71.56 71.72 70.24 69.10 68.08 68.56 68.91 68.37 67.90 67.46 67.09 66.71 68.10 68.94 69.46 70.65 70.55 70.03 69.73 68.96 68.49 68.26 67.99 68.13 68.42 67.84 68.00 67.31 68.41 67.24 69.37
68.12 69.63 70.66 72.24 72.75 73.12 73.15 72.50 72.72 72.84 72.74 72.20 71.72 71.32 69.93 68.81 67.66 67.65 67.49 66.86 66.48 66.35 66.06 65.98 67.44 67.86 69.59 69.57 68.87 68.62 68.05 67.18 66.46 65.90 65.67 64.76 65.10 67.74 67.00 66.77 66.48 67.03 67.95
68.87 69.71 70.24 71.11 72.53 73.01 73.08 72.92 72.50 72.33 72.79 72.02 71.49 70.78 69.71 68.43 67.43 66.53 65.84 65.34 65.03 64.98 65.05 65.66 66.85 68.13 68.88 68.23 67.79 67.06 66.36 65.59 64.70 63.92 61.65 61.87 62.92 66.32 66.57 66.36 66.29 66.30 66.07
68.71 69.66 69.51 70.82 72.35 72.68 72.54 72.33 72.11 72.56 72.63 71.75 71.18 70.51 69.70 68.38 67.94 66.98 65.87 64.45 63.71 63.49 63.99 65.06 66.07 66.95 67.85 67.19 66.55 65.72 64.81 63.73 62.36 59.79 59.10 59.87 59.71 64.44 65.98 65.85 65.29 65.18 65.23
68.39 69.04 69.44 71.16 72.48 72.34 72.22 71.89 71.67 71.71 71.70 71.23 71.06 70.24 69.80 68.45 68.29 67.46 66.53 64.83 62.90 62.47 62.88 64.09 64.59 65.29 66.05 65.22 64.54 63.91 63.11 62.12 59.07 55.64 57.23 60.10 59.77 65.36 65.75 65.48 65.20 64.89 65.14
67.51 68.26 68.94 70.87 71.77 72.15 72.10 71.82 71.77 71.57 71.50 71.46 71.12 70.06 69.45 68.47 68.16 67.41 66.70 65.22 63.24 61.60 61.70 62.70 62.97 63.26 63.30 62.11 60.95 60.56 60.44 59.78 54.31 55.16 56.38 58.72 61.16 65.32 65.76 65.47 65.23 64.77 64.47
67.45 67.86 68.58 68.00 69.42 70.61 71.39 71.61 71.71 71.72 71.58 71.30 71.02 70.44 69.62 68.53 68.11 67.49 66.73 65.59 64.20 62.35 60.98 61.28 61.12 61.01 60.88 59.44 58.38 58.32 58.36 56.78 53.20 53.24 55.46 58.20 64.46 65.17 65.38 64.79 64.49 64.16 63.96
65.81 66.83 67.38 67.84 67.69 67.21 68.54 69.16 69.95 70.84 70.87 70.93 70.75 70.51 69.72 68.99 68.53 67.75 67.35 65.99 64.91 63.64 62.07 60.83 59.95 59.81 59.29 57.92 56.54 55.97 56.37 55.75 49.47 51.68 55.12 57.66 64.72 65.39 65.23 65.28 64.74 64.44 64.30
59.43 63.15 65.24 67.14 67.82 67.74 67.42 64.81 66.48 68.01 68.65 68.93 68.73 67.58 66.65 66.80 66.74 66.06 64.95 65.56 64.37 62.97 61.65 60.43 59.52 58.94 58.10 56.96 55.37 53.82 53.12 52.97 48.61 50.93 53.30 59.76 63.48 64.21 64.82 64.56 64.68 65.30 65.43
52.55 53.13 55.39 63.07 64.80 66.04 65.76 64.65 62.88 65.55 66.22 66.05 65.34 63.99 63.65 64.85 64.33 63.66 63.57 64.68 64.08 62.94 61.09 59.04 56.95 56.13 55.50 55.04 53.78 52.35 50.38 46.12 49.66 52.03 54.32 61.16 61.54 61.87 61.92 62.02 62.18 62.88 62.97
50.78 49.98 50.60 53.55 55.99 58.01 63.72 67.34 66.78 66.64 66.05 65.71 65.45 64.51 64.38 63.87 63.96 64.18 61.51 61.96 62.87 61.88 60.32 58.67 56.27 53.10 48.74 44.54 45.50 48.24 45.78 47.37 50.17 52.66 56.52 61.58 62.32 62.92 62.67 62.06 61.25 60.90 60.82
48.46 49.00 50.72 51.07 52.97 54.73 57.57 64.69 66.99 67.57 65.74 65.16 66.25 65.91 65.26 64.40 64.03 63.56 61.96 60.40 58.42 55.75 53.29 52.23 50.05 48.55 46.95 46.10 44.87 44.41 45.67 47.29 49.01 48.72 53.34 58.96 60.40 61.52 61.90 62.00 62.12 61.89 61.35
46.66 48.12 50.09 50.88 51.73 52.17 52.57 57.80 64.18 65.59 65.80 65.65 65.72 65.59 64.64 63.91 63.21 62.52 61.76 60.47 58.86 56.28 52.69 51.03 49.69 49.05 48.46 47.42 45.64 44.83 44.62 45.69 46.64 45.12 49.03 54.26 57.11 59.24 60.09 60.43 60.46 60.86 61.28
45.47 47.34 49.13 49.64 51.04 52.36 51.57 61.96 61.48 62.79 63.12 63.36 64.62 65.31 64.59 63.03 62.68 62.35 61.84 60.94 58.73 57.14 54.64 51.40 50.97 50.97 48.74 47.08 45.50 44.79 43.18 42.52 42.15 42.25 42.55 50.78 53.02 55.71 57.49 58.65 59.64 59.49 59.33
45.75 46.80 47.98 49.55 50.90 52.29 53.46 59.43 60.34 60.94 61.05 61.56 62.53 64.18 64.27 63.52 62.70 61.48 59.85 58.92 57.43 56.48 55.01 53.56 52.63 51.75 50.75 48.53 45.60 44.21 41.10 39.60 38.58 37.57 37.22 40.50 49.00 51.52 53.99 55.42 56.25 57.16 57.54
45.75 46.84 47.71 49.20 51.18 54.18 54.27 57.80 58.01 58.74 58.91 59.22 59.04 60.52 61.59 62.07 61.23 59.74 57.86 56.53 55.57 55.12 53.85 52.17 50.35 50.34 47.65 44.83 41.44 39.27 37.58 36.59 36.30 35.76 35.56 35.01 35.19 46.03 48.86 51.07 52.03 53.90 55.57
45.25 46.33 47.54 51.25 54.03 55.17 52.27 55.35 54.12 55.83 55.46 56.19 56.73 57.47 58.42 58.75 58.92 57.53 55.95 54.77 54.15 53.08 51.17 48.42 47.57 45.40 41.92 39.97 37.34 35.92 34.59 34.65 34.22 34.09 33.99 33.87 33.03 33.07 40.93 46.66 49.53 51.83 52.81
45.07 45.91 46.79 47.81 52.39 53.03 50.48 51.60 50.44 52.24 53.15 53.59 54.36 54.83 54.83 55.68 55.81 55.53 54.31 52.93 50.98 48.96 47.02 45.37 43.61 43.22 39.57 37.50 35.63 33.69 32.20 31.69 31.71 33.28 31.84 32.02 32.22 31.11 32.00 41.84 44.94 45.37 46.52
44.53 45.59 46.07 46.66 48.46 50.27 48.82 47.22 46.29 47.22 46.88 49.25 50.58 51.43 51.33 50.99 51.46 51.26 50.15 48.08 45.89 43.47 42.31 42.67 41.28 39.63 39.42 36.09 34.75 32.35 30.59 29.92 29.57 28.75 28.83 31.19 30.65 30.15 30.81 31.65 31.67 34.81 41.85
43.60 44.39 44.84 45.41 48.25 48.02 47.01 46.55 45.12 45.35 44.54 44.54 45.76 47.75 48.34 47.97 48.01 48.30 46.53 43.86 40.57 40.10 39.01 41.66 40.35 38.75 35.16 34.50 33.44 31.96 30.90 29.10 28.15 27.57 27.65 27.35 28.71 28.95 29.62 29.94 29.95 29.42 30.31
43.68 44.63 44.28 45.42 47.76 47.99 47.23 43.04 42.05 40.87 37.81 40.74 41.27 41.92 42.96 43.19 43.78 44.45 43.58 38.29 36.00 36.50 37.40 38.19 37.52 32.01 30.19 30.80 34.21 33.07 28.60 30.44 29.52 28.66 26.64 27.62 25.30 26.76 28.12 29.13 28.45 27.88 27.04
42.95 44.25 45.17 45.37 45.84 47.58 45.58 38.75 36.94 38.51 38.97 38.79 38.34 38.78 38.70 39.94 39.74 38.98 37.56 35.33 33.55 35.43 36.88 33.36 33.87 33.66 28.74 27.54 30.06 35.94 31.66 32.33 28.52 29.38 26.15 24.03 24.18 24.43 24.74 26.58 26.96 26.80 26.08
42.72 44.92 45.73 45.30 45.12 45.17 41.88 40.54 40.80 37.33 36.24 36.30 37.46 36.46 35.62 36.48 35.74 35.26 34.15 32.91 31.95 31.28 31.81 31.27 31.23 30.04 29.64 26.61 26.47 27.30 25.44 28.80 25.13 23.72 24.21 23.92 23.93 24.99 23.62 25.00 24.58 24.97 24.97
42.38 44.05 45.06 44.49 44.46 43.29 41.04 42.00 41.41 39.10 33.67 33.05 35.40 34.56 33.90 33.32 32.18 32.19 31.94 30.59 29.95 29.55 29.07 29.20 28.20 28.52 28.06 26.96 26.24 25.38 24.19 22.61 22.49 22.97 22.23 22.38 24.00 23.49 23.42 23.88 23.70 22.88 24.42
41.39 43.07 43.67 43.80 43.81 40.76 40.06 39.73 41.66 37.20 33.34 33.46 33.63 33.36 32.52 31.74 29.22 29.50 29.36 28.84 28.65 28.62 28.22 27.62 27.07 27.46 26.78 25.97 25.75 25.48 24.97 23.75 22.10 21.40 20.12 19.48 20.14 22.54 23.60 23.60 23.70 23.18 23.16
MSLP
1019.94 1019.81 1019.83 1019.91 1020.06 1020.15 1020.18 1020.38 1020.50 1020.65 1020.82 1020.85 1021.06 1021.15 1021.03 1021.24 1021.28 1021.37 1021.24 1021.22 1021.35 1021.24 1021.20 1021.24 1021.23 1021.15 1021.18 1021.15 1020.91 1021.07 1021.29 1021.35 1021.37 1021.37 1021.30 1021.19 1021.08 1021.08 1021.17 1021.10 1020.91 1020.62 1020.56
1019.39 1019.65 1019.70 1019.90 1020.06 1020.24 1020.42 1020.66 1020.77 1020.94 1020.95 1021.05 1021.23 1021.31 1021.40 1021.43 1021.49 1021.47 1021.47 1021.60 1021.47 1021.50 1021.41 1021.47 1021.66 1021.50 1021.48 1021.43 1021.51 1021.67 1021.84 1021.92 1021.95 1021.97 1021.93 1021.72 1021.60 1021.61 1021.76 1021.72 1021.50 1021.29 1021.23
1019.37 1019.57 1019.75 1020.00 1020.28 1020.49 1020.74 1020.88 1020.99 1021.04 1021.16 1021.28 1021.46 1021.54 1021.76 1021.74 1021.75 1021.71 1021.73 1021.73 1021.73 1021.85 1021.69 1021.85 1021.91 1021.94 1021.84 1021.99 1022.11 1022.11 1022.26 1022.31 1022.33 1022.30 1022.17 1022.12 1022.07 1022.06 1022.14 1022.17 1022.11 1022.04 1021.88
1019.56 1019.76 1020.00 1020.11 1020.33 1020.56 1020.79 1021.01 1021.21 1021.26 1021.39 1021.51 1021.67 1021.85 1021.93 1022.05 1022.10 1021.96 1022.05 1022.17 1022.27 1022.24 1022.24 1022.30 1022.30 1022.28 1022.46 1022.44 1022.57 1022.54 1022.71 1022.79 1022.86 1022.77 1022.82 1022.87 1022.69 1022.59 1022.61 1022.62 1022.66 1022.67 1022.55
1019.76 1019.94 1020.16 1020.35 1020.55 1020.76 1021.02 1021.19 1021.38 1021.42 1021.55 1021.72 1021.90 1022.14 1022.36 1022.43 1022.60 1022.58 1022.72 1022.77 1022.80 1022.80 1022.59 1022.75 1022.82 1022.91 1023.01 1023.12 1023.13 1023.21 1023.32 1023.40 1023.45 1023.52 1023.46 1023.48 1023.34 1023.11 1023.14 1023.17 1023.15 1023.21 1023.07
1019.91 1020.05 1020.26 1020.42 1020.64 1020.83 1021.13 1021.39 1021.57 1021.69 1021.83 1022.04 1022.23 1022.41 1022.65 1022.93 1023.02 1023.02 1023.13 1023.21 1023.28 1023.17 1023.19 1023.28 1023.41 1023.42 1023.59 1023.67 1023.77 1023.87 1023.96 1024.10 1024.22 1024.17 1024.09 1023.92 1023.78 1023.65 1023.62 1023.63 1023.54 1023.60 1023.59
1020.14 1020.30 1020.45 1020.56 1020.73 1021.03 1021.27 1021.48 1021.70 1021.89 1021.99 1022.21 1022.37 1022.62 1022.96 1023.27 1023.26 1023.37 1023.52 1023.59 1023.66 1023.65 1023.77 1024.03 1024.01 1024.13 1024.30 1024.45 1024.60 1024.61 1024.85 1024.89 1024.92 1024.79 1024.68 1024.39 1024.15 1024.12 1024.06 1024.04 1023.97 1023.91 1023.95
1019.98 1020.37 1020.60 1020.79 1020.96 1021.19 1021.41 1021.63 1021.83 1022.02 1022.25 1022.48 1022.67 1022.93 1023.21 1023.34 1023.51 1023.64 1023.81 1024.04 1024.08 1024.00 1024.32 1024.28 1024.62 1024.75 1024.86 1025.02 1025.34 1025.39 1025.49 1025.54 1025.43 1025.39 1025.28 1024.88 1024.57 1024.47 1024.49 1024.52 1024.48 1024.47 1024.37
1020.15 1020.37 1020.66 1020.90 1021.10 1021.31 1021.53 1021.72 1021.91 1022.15 1022.40 1022.58 1022.76 1022.96 1023.26 1023.52 1023.71 1024.04 1024.28 1024.33 1024.42 1024.60 1024.74 1024.83 1025.12 1025.16 1025.39 1025.64 1025.90 1025.84 1025.94 1026.04 1026.03 1025.98 1025.69 1025.46 1025.00 1024.82 1024.85 1024.87 1024.83 1024.89 1024.71
1020.66 1020.76 1020.89 1021.16 1021.38 1021.61 1021.85 1022.02 1022.15 1022.32 1022.50 1022.71 1022.98 1023.25 1023.54 1023.79 1024.12 1024.40 1024.54 1024.67 1024.83 1025.02 1025.25 1025.62 1025.70 1025.64 1025.91 1026.09 1026.33 1026.60 1026.60 1026.56 1026.58 1026.47 1026.32 1025.96 1025.69 1025.33 1025.52 1025.47 1025.45 1025.29 1025.08
1021.24 1021.27 1021.28 1021.21 1021.45 1021.67 1021.87 1022.09 1022.29 1022.40 1022.62 1022.88 1023.18 1023.44 1023.74 1024.05 1024.38 1024.63 1024.78 1024.93 1025.13 1025.40 1025.85 1026.16 1026.33 1026.47 1026.61 1026.75 1026.93 1027.09 1027.18 1027.46 1027.33 1027.14 1026.89 1026.58 1026.42 1026.23 1026.22 1026.01 1026.00 1025.82 1025.71
1021.41 1021.51 1021.55 1021.52 1021.65 1021.77 1021.79 1021.88 1021.98 1022.15 1022.40 1022.80 1023.13 1023.52 1023.83 1024.20 1024.54 1024.74 1025.00 1025.29 1025.49 1025.86 1026.28 1026.57 1026.79 1027.01 1027.15 1027.48 1027.72 1027.67 1027.86 1028.04 1027.99 1027.73 1027.45 1027.04 1026.86 1026.60 1026.67 1026.61 1026.58 1026.40 1026.35
1021.24 1021.51 1021.67 1021.80 1021.85 1021.87 1021.85 1021.75 1021.72 1021.84 1022.29 1022.62 1022.89 1023.28 1023.83 1024.20 1024.56 1024.94 1025.35 1025.74 1026.07 1026.38 1026.86 1027.20 1027.51 1027.69 1027.88 1028.02 1028.33 1028.54 1028.58 1028.63 1028.74 1028.67 1028.36 1027.80 1027.39 1027.17 1027.11 1027.10 1026.99 1026.87 1026.83
1021.34 1021.51 1021.72 1021.85 1021.95 1021.99 1022.10 1021.95 1021.85 1021.93 1022.04 1022.38 1022.68 1023.16 1023.64 1024.11 1024.48 1024.91 1025.36 1025.85 1026.29 1026.71 1027.15 1027.63 1027.94 1028.16 1028.45 1028.62 1028.82 1029.13 1029.42 1029.47 1029.46 1029.58 1029.23 1028.75 1028.17 1027.94 1027.78 1027.60 1027.31 1027.47 1027.24
1021.51 1021.64 1021.81 1021.93 1021.97 1022.02 1022.01 1021.81 1022.01 1022.06 1022.21 1022.30 1022.53 1022.77 1023.31 1023.96 1024.53 1024.83 1025.33 1025.74 1026.34 1026.76 1027.14 1027.94 1028.20 1028.38 1028.86 1029.07 1029.39 1029.55 1029.98 1030.17 1030.26 1030.44 1030.30 1029.67 1029.15 1028.81 1028.67 1028.42 1028.15 1027.94 1027.82
1021.51 1021.73 1021.83 1021.90 1021.90 1021.97 1021.99 1021.86 1021.96 1022.12 1022.23 1022.47 1022.63 1022.70 1023.12 1023.64 1024.15 1024.74 1025.35 1025.69 1026.35 1026.58 1027.23 1027.81 1028.23 1028.57 1029.05 1029.31 1029.66 1030.11 1030.49 1030.84 1030.94 1031.03 1031.20 1030.81 1030.35 1029.87 1029.59 1029.41 1029.21 1028.90 1028.65
1021.35 1021.57 1021.72 1021.87 1021.94 1021.93 1021.96 1021.87 1022.08 1022.16 1022.33 1022.59 1022.83 1022.87 1023.01 1023.42 1023.90 1024.58 1025.34 1025.87 1026.31 1026.75 1027.29 1028.05 1028.69 1028.94 1029.46 1030.26 1030.88 1031.11 1031.17 1031.49 1031.68 1031.60 1031.67 1031.75 1031.77 1031.15 1030.77 1030.26 1030.06 1029.67 1029.36
1021.15 1021.45 1021.62 1021.62 1021.64 1021.72 1022.08 1022.03 1022.31 1022.30 1022.59 1022.85 1022.99 1023.07 1023.21 1023.51 1023.92 1024.61 1025.29 1025.97 1026.45 1026.88 1027.47 1028.25 1028.92 1029.82 1030.53 1031.09 1031.78 1032.25 1032.22 1032.24 1032.28 1032.33 1032.47 1032.54 1032.58 1032.62 1032.24 1031.76 1030.79 1030.60 1030.26
1020.69 1021.09 1021.41 1021.55 1021.65 1021.84 1022.17 1022.40 1022.71 1022.54 1022.92 1023.10 1023.24 1023.35 1023.61 1023.86 1024.22 1024.68 1025.31 1026.03 1026.47 1027.11 1027.86 1028.38 1029.53 1029.68 1030.99 1031.80 1032.23 1032.73 1033.17 1033.11 1033.11 1033.01 1033.27 1033.24 1033.37 1033.31 1033.11 1032.95 1032.56 1031.96 1031.61
1020.30 1020.63 1021.00 1021.32 1021.57 1021.80 1022.26 1022.71 1023.06 1023.04 1023.39 1023.48 1023.50 1023.58 1023.82 1024.21 1024.63 1025.12 1025.77 1026.50 1026.84 1027.66 1028.35 1028.86 1029.60 1030.73 1031.14 1031.67 1032.60 1033.35 1033.85 1033.86 1033.92 1034.07 1034.10 1033.98 1034.08 1033.70 1033.66 1033.90 1034.08 1033.65 1032.86
1020.12 1020.46 1020.68 1021.06 1021.30 1021.71 1022.36 1022.88 1023.28 1023.39 1023.80 1023.94 1024.03 1023.95 1024.03 1024.34 1024.65 1025.08 1025.74 1026.27 1027.16 1027.73 1028.59 1028.97 1029.79 1030.64 1031.93 1032.16 1032.54 1033.91 1034.35 1034.47 1034.60 1034.74 1034.70 1034.60 1034.53 1034.62 1034.30 1034.46 1034.74 1034.61 1034.32
1019.36 1019.87 1020.35 1020.66 1020.95 1021.33 1021.82 1022.40 1022.85 1023.31 1024.13 1024.19 1024.41 1024.57 1024.59 1024.72 1024.97 1025.09 1025.52 1026.67 1027.41 1028.14 1028.81 1028.96 1029.32 1030.86 1032.01 1032.37 1032.59 1033.43 1034.56 1034.97 1035.05 1035.00 1035.10 1035.02 1035.39 1035.18 1035.05 1034.84 1034.95 1035.02 1034.75
1018.50 1018.86 1019.39 1019.95 1020.51 1020.98 1021.54 1022.26 1023.01 1023.41 1024.13 1024.48 1024.75 1024.95 1025.11 1025.04 1025.19 1025.47 1025.99 1026.67 1027.35 1027.80 1028.47 1028.82 1029.27 1029.85 1031.45 1032.49 1032.27 1032.47 1033.96 1034.32 1035.00 1035.28 1035.51 1035.69 1035.58 1035.67 1035.77 1035.34 1035.38 1035.36 1035.31
1016.99 1017.93 1018.63 1019.37 1019.99 1020.55 1020.98 1021.60 1021.94 1022.50 1023.57 1023.92 1024.29 1024.67 1025.27 1025.49 1025.78 1026.00 1026.24 1026.74 1027.26 1027.85 1028.30 1028.72 1029.13 1029.57 1030.32 1031.88 1032.45 1032.56 1032.44 1033.06 1034.40 1035.48 1035.58 1035.51 1035.60 1035.68 1035.86 1035.60 1035.82 1035.79 1035.67
1016.62 1017.28 1018.04 1018.87 1019.53 1020.00 1020.48 1020.98 1021.61 1022.44 1022.98 1023.46 1024.32 1024.71 1025.25 1025.90 1026.25 1026.37 1026.56 1026.98 1027.43 1027.85 1028.30 1028.62 1029.25 1029.62 1030.19 1031.15 1031.77 1032.74 1033.23 1033.62 1033.90 1034.69 1035.45 1035.60 1035.61 1035.89 1035.83 1035.72 1035.93 1035.89 1035.74
1016.03 1016.85 1017.61 1018.39 1019.05 1019.66 1020.17 1020.62 1021.04 1021.87 1022.79 1023.61 1024.31 1024.73 1025.29 1025.92 1026.60 1026.72 1026.88 1027.14 1027.40 1027.82 1028.23 1028.64 1029.07 1029.41 1030.00 1030.60 1031.28 1031.92 1032.55 1033.17 1034.23 1034.72 1035.66 1036.17 1036.47 1035.98 1035.76 1035.66 1035.77 1036.00 1035.92
Wind_Speed
3 4 10 12 13 14 14 13 12 13 15 17 17 17 19 18 18 17 17 18 17 18 18 18 18 18 18 16 18 19 20 20 21 22 22 21 21 22 23 22 18 15 22
6 5 11 12 14 14 13 11 12 13 14 17 16 18 18 17 17 17 18 17 17 17 18 18 17 18 17 19 21 21 21 20 19 18 16 16 18 21 22 22 21 19 21
6 5 8 12 13 13 12 11 11 12 14 16 16 18 16 16 17 17 17 16 16 16 17 17 18 18 18 21 21 21 20 19 18 18 17 7 12 19 20 21 22 22 22
6 5 6 11 11 12 11 12 12 11 13 15 16 16 16 15 15 16 16 15 15 17 17 18 19 19 18 19 19 19 19 18 18 16 8 8 10 19 19 20 20 21 21
6 6 6 10 11 11 12 12 11 10 13 14 15 15 15 15 15 16 16 16 16 16 18 18 18 18 18 18 19 19 19 18 17 12 8 6 6 15 19 19 18 20 20
6 6 8 10 11 12 12 12 11 11 12 13 14 14 14 14 15 16 15 15 15 17 17 18 18 18 18 19 19 19 19 19 15 8 7 9 7 18 19 19 20 20 20
6 5 6 10 10 11 11 11 11 10 11 12 12 13 14 14 14 14 15 15 16 17 17 17 18 18 19 19 19 19 19 18 9 9 8 7 9 19 20 20 20 21 21
8 6 6 8 9 10 10 9 9 9 9 9 10 14 13 14 13 14 15 15 16 18 17 18 18 18 19 20 20 21 19 17 10 8 7 6 15 20 20 20 21 20 20
4 6 5 5 6 7 7 8 8 8 8 9 10 11 11 11 11 12 11 14 16 17 17 18 18 19 19 20 19 19 18 17 9 6 7 5 16 19 19 19 19 18 19
5 5 4 6 5 5 4 4 5 6 6 7 8 8 9 9 10 10 10 13 16 17 17 17 17 19 19 19 20 19 17 16 8 7 5 9 19 20 22 21 22 23 23
4 4 3 4 4 4 5 5 5 7 7 7 7 8 7 4 6 7 8 13 15 15 16 16 16 17 18 19 19 18 15 6 7 6 4 16 19 20 20 21 21 21 22
4 3 3 3 3 1 1 4 4 6 5 5 6 6 4 5 4 5 8 12 13 15 14 15 16 16 11 6 6 12 6 7 7 8 7 18 21 21 21 22 21 22 22
4 3 3 2 1 2 2 2 2 3 3 3 7 6 5 4 4 4 4 4 4 8 5 7 6 6 7 6 6 6 7 8 6 7 13 19 21 21 22 21 22 23 22
6 5 3 1 1 2 2 2 2 2 3 3 5 7 6 4 5 5 4 5 4 4 6 5 4 5 7 9 8 9 8 7 5 6 11 20 22 23 23 22 22 22 22
6 5 4 2 2 2 2 2 2 3 3 3 3 6 7 6 5 5 5 5 5 5 6 5 5 7 7 9 8 10 9 9 9 5 6 22 23 24 24 24 24 24 23
6 6 4 3 3 3 4 3 3 3 3 3 2 4 8 7 7 6 4 6 5 6 6 5 4 7 6 7 10 10 10 8 9 9 6 8 23 23 23 24 24 24 24
5 6 6 4 3 4 5 4 3 3 3 3 2 4 6 7 8 8 6 5 5 5 9 6 5 7 8 8 10 8 8 8 7 9 7 7 7 20 22 23 22 23 24
6 7 6 4 6 8 4 3 2 3 3 3 3 3 5 7 9 8 6 5 6 6 6 6 6 7 7 7 6 6 6 6 8 9 8 7 6 6 13 22 23 24 25
8 8 7 6 6 6 4 3 2 5 3 2 3 3 5 6 7 7 6 6 7 6 5 7 4 7 9 7 8 6 5 6 6 6 8 8 8 6 6 18 23 24 24
8 8 7 6 7 6 4 4 3 4 3 2 3 4 6 5 7 7 6 6 6 6 6 6 9 5 7 8 9 8 5 5 5 6 6 5 6 8 8 9 8 11 23
7 8 8 8 8 8 4 4 3 3 2 2 2 3 5 6 7 8 6 7 5 7 7 9 9 13 5 4 5 4 4 5 6 5 4 4 7 7 8 7 5 5 7
11 10 9 9 10 9 6 3 3 4 3 3 2 4 4 6 5 6 9 6 7 7 8 8 9 5 3 1 4 3 3 1 2 4 4 5 6 4 6 6 6 7 6
14 14 13 12 11 10 8 6 4 6 4 3 2 2 2 5 5 6 7 7 6 6 8 6 7 8 5 3 3 4 3 3 2 2 4 4 5 4 3 5 6 6 6
18 12 12 12 13 9 11 8 9 5 5 4 3 3 3 4 5 6 7 7 7 5 7 5 5 4 6 6 2 4 5 4 4 2 1 1 3 4 4 4 4 5 5
12 13 11 11 12 10 11 10 9 5 3 4 5 8 6 4 4 6 6 7 7 5 6 8 7 7 4 5 4 3 3 4 4 4 2 3 3 2 2 3 3 4 4
9 12 12 13 12 11 11 10 12 11 9 9 7 7 5 4 3 5 6 6 6 7 8 7 6 8 6 6 4 4 4 4 3 4 3 0 2 3 1 2 3 2 3
Wind_Direction
163 163 136 134 134 119 115 113 108 107 107 100 94 89 79 78 77 77 77 74 71 70 70 69 68 69 64 62 72 79 69 63 63 61 58 57 54 49 43 38 36 42 45
139 154 130 127 119 118 117 111 103 105 108 106 103 96 86 82 79 77 76 72 73 73 73 73 74 72 70 76 75 74 69 62 56 51 50 50 53 49 48 43 39 41 40
132 132 125 127 124 125 123 119 117 108 114 112 107 99 95 88 86 86 84 79 76 76 77 80 79 75 78 79 80 78 72 67 62 56 47 32 57 54 49 46 44 43 38
135 125 127 131 132 127 115 110 105 109 113 113 112 104 99 93 88 85 82 80 77 75 75 75 76 79 85 85 84 79 75 70 62 55 47 42 41 50 54 50 50 48 45
122 127 135 133 129 123 117 116 116 113 115 117 118 110 106 98 93 86 80 76 75 73 73 76 77 79 82 80 77 74 71 66 61 48 40 46 38 56 56 56 55 50 47
136 138 145 138 135 132 127 124 121 120 124 121 126 117 106 100 92 85 83 81 80 79 77 78 75 75 76 70 67 66 63 59 50 40 34 33 43 57 56 57 56 53 50
145 142 149 143 139 133 133 134 136 136 132 133 129 119 114 106 101 95 90 85 81 80 78 80 78 76 75 71 67 63 59 55 43 34 24 24 53 57 57 55 55 53 50
152 153 152 150 147 146 147 143 138 136 134 126 124 125 121 117 107 98 91 87 85 84 84 81 79 78 74 71 68 66 63 57 44 35 22 17 57 59 57 55 53 50 50
112 143 149 155 159 156 155 149 148 142 134 130 130 135 125 116 110 96 90 85 79 76 80 82 83 84 83 81 79 75 67 59 47 32 22 9 58 61 59 57 56 55 55
83 95 132 148 157 147 149 155 155 145 145 142 130 121 126 123 111 103 88 83 79 77 74 76 80 84 85 83 76 70 66 57 45 32 18 46 48 53 50 49 47 46 45
82 86 73 117 145 167 174 178 177 172 159 139 121 128 119 117 110 103 100 88 85 79 76 78 79 80 78 80 78 71 60 37 38 28 23 53 57 56 52 50 48 46 42
159 134 98 85 96 90 188 177 207 175 166 156 152 155 142 128 130 116 101 89 83 86 85 82 81 80 76 69 66 66 63 54 47 39 30 53 54 57 56 54 52 49 46
171 153 133 119 95 164 206 207 231 182 154 163 160 149 125 127 129 110 109 94 86 81 73 66 63 58 59 69 64 59 60 57 49 44 33 52 56 55 53 51 49 46 44
182 184 160 139 216 223 213 192 210 184 145 160 151 144 143 151 148 139 129 122 109 102 96 86 83 86 69 72 77 70 56 54 52 50 35 49 56 54 53 52 53 50 50
199 194 196 205 220 232 226 202 156 149 165 160 171 166 152 147 152 140 137 127 118 117 104 98 97 93 82 84 76 79 70 61 56 50 34 51 53 56 55 52 51 48 44
199 203 198 229 233 211 207 178 163 162 151 149 182 171 159 161 152 138 131 122 120 116 110 105 101 99 92 87 80 74 71 63 60 55 47 34 56 55 56 55 51 49 48
202 194 201 213 217 214 198 157 176 147 139 136 126 123 130 141 142 138 131 123 117 111 110 97 82 89 86 78 71 68 71 63 65 59 54 46 35 47 54 55 53 51 50
182 190 193 188 199 203 195 138 154 123 107 104 107 107 115 126 132 125 128 122 121 111 114 107 100 92 82 84 84 58 56 61 62 56 52 46 40 31 38 52 53 53 51
190 183 191 187 185 181 148 109 105 98 92 93 86 89 86 105 117 124 127 124 124 112 111 117 87 110 106 95 89 70 45 54 48 56 56 51 49 44 40 48 50 52 47
191 186 182 178 177 140 116 111 82 88 73 69 96 115 112 101 104 110 107 121 107 112 114 109 112 76 110 111 94 74 55 46 49 48 46 54 50 46 51 47 34 31 44
193 187 185 172 172 152 150 151 137 133 111 73 56 100 127 127 130 131 129 115 117 130 136 128 117 117 94 116 103 76 52 53 52 44 40 44 46 38 54 53 51 35 30
190 193 187 185 176 174 166 143 141 134 96 95 84 69 92 119 127 128 128 127 126 126 133 139 136 120 100 357 123 117 131 355 44 44 39 53 52 40 52 59 60 49 38
197 193 190 184 179 176 155 121 97 86 83 96 89 98 78 102 109 116 121 134 136 139 150 141 139 129 135 40 55 139 123 187 133 7 40 48 57 58 53 66 55 47 39
206 189 184 180 178 176 159 161 169 159 155 171 153 132 116 102 121 130 130 135 135 135 138 141 148 139 126 140 102 35 54 127 152 134 314 16 71 64 54 63 66 48 39
192 186 180 174 179 173 173 173 165 155 122 120 137 131 127 108 122 134 138 138 139 138 135 138 136 135 118 135 139 151 83 63 72 123 172 329 10 40 60 89 94 65 44
172 175 174 176 184 173 174 172 175 160 151 145 155 146 141 131 132 139 137 138 138 138 146 142 130 127 127 111 115 122 154 150 152 122 103 206 254 288 319 105 108 74 48